Regional Weather Roundup
Issued by NWS

Home | Current Version | Previous Version | Graphics & Text | Print | Product List | Glossary On
Versions: 1 2 3 4 5 6 7 8 9 10 11 12 13 14 15 16 17 18 19 20 21 22 23 24 25 26 27 28 29 30 31 32 33 34 35 36 37 38 39 40 41 42 43 44 45 46 47 48 49 50
000
ASUS43 KLMK 301410
RWRKY
KENTUCKY REGIONAL WEATHER ROUNDUP
NATIONAL WEATHER SERVICE LOUISVILLE KY
1000 AM EDT THU MAR 30 2017

NOTE "FAIR" INDICATES FEW OR NO CLOUDS BELOW 12,000 FEET
WITH NO SIGNIFICANT WEATHER AND/OR OBSTRUCTIONS TO VISIBILITY.

KYZ001>023-026-027-061>063-070>075-301500-
WESTERN AND SOUTH CENTRAL KENTUCKY

CITY           SKY/WX    TMP DP  RH WIND       PRES   REMARKS
PADUCAH        CLOUDY    69  55  60 S7        29.65F
HENDERSON      CLOUDY    66  57  72 SE13      29.66R
OWENSBORO      CLOUDY    68  59  73 S14       29.70F
HOPKINSVILLE   CLOUDY    70  58  66 S8G20     29.70F
BOWLING GREEN  CLOUDY    70  58  65 S13G25    29.75F
GLASGOW        CLOUDY    69  56  64 S9        29.76F
$$

KYZ024-025-028>034-038-045-046-053-301500-
NORTH CENTRAL KENTUCKY

CITY           SKY/WX    TMP DP  RH WIND       PRES   REMARKS
LOUISVILLE/SDF CLOUDY    63  51  65 SE7       29.76F
LOUISVILLE/LOU CLOUDY    64  52  64 CALM      29.77F
FORT KNOX      PTSUNNY   68  57  68 S15       29.73F
$$

KYZ035>037-039>044-047>052-055>060-089>105-301500-
NORTHEAST KENTUCKY

CITY           SKY/WX    TMP DP  RH WIND       PRES   REMARKS
LEXINGTON      CLOUDY    64  51  62 S14       29.84F
COVINGTON      CLOUDY    58  50  75 SE7       29.81F
FRANKFORT      CLOUDY    62  50  64 S8        29.81F
$$

KYZ054-064>069-076>088-106>120-301500-
SOUTHEAST KENTUCKY

CITY           SKY/WX    TMP DP  RH WIND       PRES   REMARKS
JACKSON        CLOUDY    65  51  60 SW3       29.91S
LONDON         CLOUDY    67  50  54 S9        29.90F
SOMERSET       CLOUDY    64  52  63 S7        29.89F
MIDDLESBORO    PTSUNNY   67  53  60 CALM      29.95F
MONTICELLO     CLOUDY    70  56  61 SE8       29.89F
$$




USA.gov is the U.S. government's official web portal to all federal, state and local government web resources and services.